CW5456 Hansville WA US current weather conditions

sailwx.info

Wind from 131 at 4 knots gusting 13

Air temperature 7.2° C
Dewpoint 5.5° C

Last reported at 2017-Nov-18 09:10 UTC.
Time now 2017-Nov-18 10:11 UTC

Location: N 47°55' W 122°35'.
View on Google Maps.

See reports from other nearby stations

  
Tides and Currents Weather Stations Pressure Air Temp Water Temp Dewpoint Dewpoint Depression Visibility Wind Speed Wind Dir Waves Ship Positions
date/time (UTC)wind fromknots sea level pressurealtimeterstation pressurevisibilityair tempwater tempwave heightnotes
2017-Nov-18 09:10 131 4 gusting 13 7.2
2017-Nov-18 09:00 139 12 gusting 12 7.2
2017-Nov-18 08:50 127 3 gusting 12 7.2
2017-Nov-18 08:40 150 2 gusting 9 7.2
2017-Nov-18 08:30 136 5 gusting 11 7.2
2017-Nov-18 08:20 111 3 gusting 9 7.2
2017-Nov-18 08:10 087 3 gusting 6 6.7
2017-Nov-18 08:00 113 1 gusting 13 6.7
2017-Nov-18 07:50 121 4 gusting 8 6.7
2017-Nov-18 07:40 114 0 gusting 7 6.7
2017-Nov-18 07:30 112 1 gusting 11 6.7
2017-Nov-18 07:20 129 7 gusting 15 6.7
2017-Nov-18 07:10 106 6 gusting 9 6.7
2017-Nov-18 07:00 104 0 gusting 8 6.7
2017-Nov-18 06:50 094 6.7
2017-Nov-18 06:40 125 1 gusting 6 6.1
2017-Nov-18 06:30 097 0 gusting 9 6.1
2017-Nov-18 06:20 066 2 gusting 6 6.1
2017-Nov-18 06:10 082 0 gusting 7 6.1
2017-Nov-18 06:00 135 6.1
2017-Nov-18 05:50 108 1 gusting 6 6.1
2017-Nov-18 05:40 085 2 gusting 4 6.1
2017-Nov-18 05:30 106 3 gusting 3 6.1
2017-Nov-18 05:20 122 6.1
2017-Nov-18 05:10 130 6.1
2017-Nov-18 05:00 133 4 gusting 5 6.1
2017-Nov-18 04:50 120 5.6
2017-Nov-18 02:10 130 6.1
2017-Nov-18 02:00 130 1 gusting 4 6.7
2017-Nov-18 01:50 086 2 gusting 2 6.7
2017-Nov-18 01:40 085 6.7
2017-Nov-18 01:30 085 7.2
2017-Nov-18 01:20 086 7.2
2017-Nov-18 01:10 086 1 gusting 3 7.2
2017-Nov-18 01:00 085 0 gusting 5 7.2
2017-Nov-18 00:50 087 2 gusting 2 7.2
2017-Nov-18 00:40 089 0 gusting 5 7.8
2017-Nov-18 00:30 066 7.8
2017-Nov-18 00:20 051 1 gusting 2 8.3
2017-Nov-18 00:10 028 8.3
2017-Nov-18 00:00 028 8.3
2017-Nov-17 23:50 028 8.3
2017-Nov-17 23:40 027 0 gusting 3 8.3
2017-Nov-17 23:30 027 8.3
2017-Nov-17 23:20 027 2 gusting 4 8.3
2017-Nov-17 23:10 001 0 gusting 3 8.3
2017-Nov-17 23:00 001 0 gusting 2 8.9
2017-Nov-17 22:50 001 1 gusting 4 8.9
2017-Nov-17 22:40 001 2 gusting 3 8.9
2017-Nov-17 22:30 116 8.9
2017-Nov-17 22:20 116 8.9
2017-Nov-17 22:10 116 9.4
2017-Nov-17 22:00 116 9.4
2017-Nov-17 21:50 128 2 gusting 6 9.4
2017-Nov-17 21:40 129 5 gusting 5 9.4
2017-Nov-17 21:30 125 0 gusting 6 9.4
2017-Nov-17 21:20 112 1 gusting 5 9.4
2017-Nov-17 21:10 121 3 gusting 4 9.4
2017-Nov-17 21:00 124 0 gusting 6 9.4
2017-Nov-17 20:50 099 4 gusting 6 9.4
2017-Nov-17 20:40 150 3 gusting 5 10.0
2017-Nov-17 20:30 138 2 gusting 5 9.4
2017-Nov-17 20:20 163 1 gusting 1 8.9
2017-Nov-17 20:10 179 8.9
2017-Nov-17 20:00 183 2 gusting 4 8.9
2017-Nov-17 19:40 076 8.9
2017-Nov-17 19:30 128 0 gusting 5 8.3
2017-Nov-17 19:20 100 3 gusting 7 8.9
2017-Nov-17 19:10 150 0 gusting 5 8.3
2017-Nov-17 19:00 098 8.3
2017-Nov-17 18:50 177 1 gusting 6 7.8
2017-Nov-17 18:40 122 2 gusting 6 7.2
2017-Nov-17 18:30 116 1 gusting 6 6.7
2017-Nov-17 18:20 140 6.7
2017-Nov-17 18:10 133 3 gusting 9 6.1
2017-Nov-17 18:00 128 5 gusting 8 6.7
2017-Nov-17 17:50 116 3 gusting 9 6.7
2017-Nov-17 17:40 139 2 gusting 9 6.1
2017-Nov-17 17:30 128 6 gusting 8 6.1
2017-Nov-17 17:20 112 3 gusting 8 6.1
2017-Nov-17 17:10 140 5 gusting 8 5.6
2017-Nov-17 16:50 114 4 gusting 7 5.0
2017-Nov-17 16:20 141 5 gusting 6 3.9
2017-Nov-17 16:10 131 3 gusting 6 3.9
2017-Nov-17 16:00 158 0 gusting 6 3.9
2017-Nov-17 15:40 131 1 gusting 5 3.9
2017-Nov-17 15:29 117 1 gusting 6 4.4
2017-Nov-17 15:19 127 2 gusting 6 4.4
2017-Nov-17 15:10 147 1 gusting 4 3.9
2017-Nov-17 15:00 145 2 gusting 5 3.9
2017-Nov-17 14:49 135 3 gusting 6 3.9
2017-Nov-17 14:40 116 3 gusting 4 3.9
2017-Nov-17 14:30 135 0 gusting 4 3.3
2017-Nov-17 14:20 135 1 gusting 4 3.3
2017-Nov-17 14:10 135 3 gusting 3 3.3
2017-Nov-17 14:00 135 3 gusting 5 3.9
2017-Nov-17 13:49 136 3 gusting 6 3.9
2017-Nov-17 13:40 130 1 gusting 4 3.9
2017-Nov-17 13:30 129 1 gusting 6 3.9
2017-Nov-17 13:19 143 3 gusting 5 3.9
2017-Nov-17 13:10 145 2 gusting 4 3.9
2017-Nov-17 13:00 146 0 gusting 5 3.9
2017-Nov-17 12:50 140 1 gusting 6 3.9
2017-Nov-17 12:40 149 1 gusting 5 3.9
2017-Nov-17 12:30 157 1 gusting 6 3.9
2017-Nov-17 12:20 129 2 gusting 5 3.9
2017-Nov-17 12:10 145 2 gusting 7 3.9
2017-Nov-17 12:00 139 4 gusting 6 3.9
2017-Nov-17 11:50 150 4 gusting 6 3.9
2017-Nov-17 11:40 133 3 gusting 6 3.9
2017-Nov-17 11:30 142 3 gusting 6 3.9
2017-Nov-17 11:20 131 3 gusting 6 4.4
2017-Nov-17 11:10 130 2 gusting 7 4.4
2017-Nov-17 11:00 127 3 gusting 6 4.4
2017-Nov-17 10:50 136 3 gusting 7 5.0
2017-Nov-17 10:40 135 5 gusting 6 5.0
2017-Nov-17 10:30 136 4 gusting 10 5.0
2017-Nov-17 10:20 142 4 gusting 6 5.6
2017-Nov-17 10:10 122 2 gusting 6 5.6
2017-Nov-17 10:00 129 4 gusting 8 5.6
2017-Nov-17 09:50 128 1 gusting 8 5.6
2017-Nov-17 09:40 120 3 gusting 7 5.6
2017-Nov-17 09:30 155 4 gusting 7 5.6
2017-Nov-17 09:20 111 3 gusting 8 5.6
2017-Nov-17 09:10 129 1 gusting 7 5.6
2017-Nov-17 09:00 111 3 gusting 7 5.6
2017-Nov-17 08:50 125 2 gusting 10 5.6
2017-Nov-17 08:40 148 4 gusting 13 5.6
2017-Nov-17 08:30 129 6 gusting 9 5.6
2017-Nov-17 08:20 125 2 gusting 11 6.1
2017-Nov-17 08:10 114 2 gusting 8 6.1
2017-Nov-17 08:00 098 8 gusting 13 6.1
2017-Nov-17 07:50 137 13 gusting 16 6.1
2017-Nov-17 07:40 150 9 gusting 13 6.1
2017-Nov-17 07:30 127 6 gusting 13 6.7
2017-Nov-17 07:20 145 6 gusting 14 6.7
2017-Nov-17 07:10 089 3 gusting 13 6.7
2017-Nov-17 07:00 149 11 gusting 14 6.1
2017-Nov-17 06:50 123 5 gusting 13 6.1
2017-Nov-17 06:40 105 6 gusting 11 6.1
2017-Nov-17 06:30 101 4 gusting 13 6.1
2017-Nov-17 06:20 111 4 gusting 10 6.7
2017-Nov-17 06:10 112 1 gusting 12 6.7
2017-Nov-17 06:00 105 3 gusting 13 6.7
2017-Nov-17 05:50 123 1 gusting 13 6.7
2017-Nov-17 05:40 127 6 gusting 11 6.7
2017-Nov-17 05:30 113 2 gusting 13 6.7
2017-Nov-17 05:20 128 6 gusting 9 6.7
2017-Nov-17 05:10 143 5 gusting 10 6.7
2017-Nov-17 05:00 126 6 gusting 14 6.7
2017-Nov-17 04:50 095 4 gusting 12 6.7
2017-Nov-17 04:40 108 2 gusting 12 6.7
2017-Nov-17 04:30 116 9 gusting 13 6.7
2017-Nov-17 04:20 125 3 gusting 14 6.7
2017-Nov-17 04:10 136 1 gusting 12 6.7
2017-Nov-17 04:00 125 1 gusting 13 6.7
2017-Nov-17 03:50 167 3 gusting 13 6.7
2017-Nov-17 03:40 096 2 gusting 11 6.7
2017-Nov-17 03:30 098 4 gusting 12 6.7
2017-Nov-17 03:20 122 2 gusting 15 6.7
2017-Nov-17 03:10 143 3 gusting 13 6.7
2017-Nov-17 03:00 112 9 gusting 14 6.7
2017-Nov-17 02:50 128 2 gusting 10 6.7
2017-Nov-17 02:40 097 2 gusting 12 6.7
2017-Nov-17 02:20 118 3 gusting 10 6.7
2017-Nov-17 02:10 114 3 gusting 13 6.7
2017-Nov-17 02:00 101 2 gusting 12 6.7
2017-Nov-17 01:50 098 6 gusting 14 6.7
2017-Nov-17 01:40 089 3 gusting 13 6.7
2017-Nov-17 01:30 170 0 gusting 12 6.7
2017-Nov-17 01:20 095 6 gusting 19 6.7
2017-Nov-17 01:10 125 3 gusting 20 6.7
2017-Nov-17 01:00 127 12 gusting 18 6.7
2017-Nov-17 00:50 115 3 gusting 21 6.7
2017-Nov-17 00:40 118 7 gusting 20 7.2
2017-Nov-17 00:30 089 6 gusting 15 7.2
2017-Nov-17 00:20 106 9 gusting 16 7.2
2017-Nov-17 00:10 093 8 gusting 13 7.2
2017-Nov-17 00:00 141 1 gusting 19 7.2
2017-Nov-16 23:50 120 11 gusting 11 7.8
2017-Nov-16 23:40 108 1 gusting 16 7.8
2017-Nov-16 23:30 104 6 gusting 14 7.8
2017-Nov-16 23:20 137 8 gusting 16 7.8
2017-Nov-16 23:10 117 6 gusting 10 7.8
2017-Nov-16 23:00 090 2 gusting 13 7.8
2017-Nov-16 22:49 116 4 gusting 15 7.8
2017-Nov-16 22:39 098 4 gusting 19 7.8
2017-Nov-16 22:30 150 3 gusting 18 7.8
2017-Nov-16 22:20 111 6 gusting 18 7.8
2017-Nov-16 22:10 114 10 gusting 19 7.8
2017-Nov-16 22:00 120 12 gusting 15 7.8
2017-Nov-16 21:50 117 12 gusting 21 7.8
2017-Nov-16 21:40 104 7 gusting 19 8.3
2017-Nov-16 21:30 135 6 gusting 15 8.3
2017-Nov-16 21:20 136 8 gusting 15 8.3
2017-Nov-16 21:10 151 10 gusting 16 8.3
2017-Nov-16 21:00 135 9 gusting 20 8.3
2017-Nov-16 20:50 098 4 gusting 14 8.3
2017-Nov-16 20:40 110 13 gusting 17 8.9
2017-Nov-16 20:30 080 9 gusting 18 8.3
2017-Nov-16 20:20 122 14 gusting 19 8.3
2017-Nov-16 20:10 112 8 gusting 20 7.8
2017-Nov-16 20:00 143 7 gusting 18 7.2
2017-Nov-16 19:50 131 8 gusting 19 7.2
2017-Nov-16 19:40 101 7 gusting 18 7.8
2017-Nov-16 19:30 105 4 gusting 19 7.2
2017-Nov-16 19:20 110 12 gusting 14 7.2
2017-Nov-16 19:10 102 1 gusting 14 7.2
2017-Nov-16 19:00 104 7 gusting 16 6.7
2017-Nov-16 18:50 139 13 gusting 15 6.7
2017-Nov-16 18:30 132 4 gusting 17 6.7
2017-Nov-16 18:20 139 9 gusting 16 6.7
2017-Nov-16 18:10 155 5 gusting 15 6.7
2017-Nov-16 18:00 109 9 gusting 14 6.7
2017-Nov-16 17:50 134 5 gusting 17 6.7
2017-Nov-16 17:40 101 13 gusting 13 6.7
2017-Nov-16 17:30 091 11 gusting 17 6.7
2017-Nov-16 17:20 075 5 gusting 13 6.1
2017-Nov-16 17:10 160 0 gusting 12 6.1
2017-Nov-16 17:00 157 6 gusting 13 6.1
2017-Nov-16 16:50 118 6 gusting 12 6.1
2017-Nov-16 16:40 169 7 gusting 12 5.6
2017-Nov-16 16:30 145 4 gusting 8 5.6
2017-Nov-16 16:20 152 5.6
2017-Nov-16 16:10 125 11 gusting 11 5.6
2017-Nov-16 16:00 108 1 gusting 6 5.6
2017-Nov-16 15:50 128 2 gusting 11 5.6
2017-Nov-16 15:40 142 6 gusting 13 5.6
2017-Nov-16 15:30 139 2 gusting 7 5.6
2017-Nov-16 15:20 098 3 gusting 6 5.6
2017-Nov-16 15:10 112 2 gusting 6 5.6
2017-Nov-16 15:00 145 5 gusting 13 5.6
2017-Nov-16 14:50 108 4 gusting 12 5.6
2017-Nov-16 14:40 133 6 gusting 11 5.6
2017-Nov-16 14:30 116 2 gusting 8 5.6
2017-Nov-16 14:20 116 5 gusting 9 5.6
2017-Nov-16 14:10 139 6 gusting 10 5.6
2017-Nov-16 14:00 102 0 gusting 12 5.6
2017-Nov-16 13:50 137 7 gusting 12 5.6
2017-Nov-16 13:40 126 11 gusting 12 6.1
2017-Nov-16 13:30 095 6 gusting 13 6.1
2017-Nov-16 13:20 116 3 gusting 13 6.1
2017-Nov-16 13:10 118 5 gusting 12 6.1
2017-Nov-16 13:00 210 3 gusting 14 6.1
2017-Nov-16 12:50 159 1 gusting 13 6.1
2017-Nov-16 12:40 209 0 gusting 12 6.1
2017-Nov-16 12:30 142 3 gusting 13 6.7
2017-Nov-16 12:20 062 3 gusting 17 6.7
2017-Nov-16 12:10 057 6.7
2017-Nov-16 12:00 115 5 gusting 14 6.7
2017-Nov-16 11:50 092 6 gusting 11 6.7
2017-Nov-16 11:40 106 1 gusting 12 6.7
2017-Nov-16 11:30 095 2 gusting 19 6.7
2017-Nov-16 11:20 105 3 gusting 15 6.7
2017-Nov-16 11:10 093 6.7
2017-Nov-16 11:00 189 5 gusting 14 6.7
2017-Nov-16 10:50 129 5 gusting 10 6.7
2017-Nov-16 10:40 155 0 gusting 9 6.7
2017-Nov-16 10:30 075 2 gusting 13 6.7
2017-Nov-16 10:20 090 5 gusting 15 6.7
2017-Nov-16 10:10 114 2 gusting 14 6.7
2017-Nov-16 10:00 130 6 gusting 17 6.7